H1 CPF 2 NER 2022 10 17 9 290 01 glonass140 H2 1903001 9140 44299 2022 10 17 0 0 0 2022 10 20 23 45 0 900 1 1 0 0 0 1 H9 10 0 59869 0.00000 0 18495795.249 15934400.758 -7396409.859 10 0 59869 900.00000 0 17613509.090 15267493.881 -10352604.975 10 0 59869 1800.00000 0 16370587.861 14508870.518 -13107614.463 10 0 59869 2700.00000 0 14777504.681 13716631.415 -15607799.467 10 0 59869 3600.00000 0 12857595.906 12947182.420 -17804440.534 10 0 59869 4500.00000 0 10646327.028 12252736.791 -19654695.616 10 0 59869 5400.00000 0 8190056.309 11679008.717 -21122444.876 10 0 59869 6300.00000 0 5544346.096 11263196.358 -22179005.077 10 0 59869 7200.00000 0 2771891.126 11032340.550 -22803698.905 10 0 59869 8100.00000 0 -59850.698 11002129.481 -22984267.509 10 0 59869 9000.00000 0 -2881226.843 11176200.729 -22717117.579 10 0 59869 9900.00000 0 -5623051.072 11545970.947 -22007397.630 10 0 59869 10800.00000 0 -8219245.903 12091000.976 -20868901.528 10 0 59869 11700.00000 0 -10609356.316 12779881.331 -19323800.778 10 0 59869 12600.00000 0 -12740829.652 13571600.687 -17402210.630 10 0 59869 13500.00000 0 -14570966.553 14417339.285 -15141598.413 10 0 59869 14400.00000 0 -16068461.656 15262610.888 -12586045.858 10 0 59869 15300.00000 0 -17214470.077 16049661.889 -9785380.298 10 0 59869 16200.00000 0 -18003156.037 16720025.093 -6794192.407 10 0 59869 17100.00000 0 -18441702.000 17217119.055 -3670760.566 10 0 59869 18000.00000 0 -18549779.722 17488781.960 -475904.024 10 0 59869 18900.00000 0 -18358507.558 17489631.994 2728211.616 10 0 59869 19800.00000 0 -17908940.192 17183153.741 5879292.191 10 0 59869 20700.00000 0 -17250156.629 16543422.179 8916131.249 10 0 59869 21600.00000 0 -16437029.076 15556391.466 11779800.506 10 0 59869 22500.00000 0 -15527768.392 14220694.477 14414791.033 10 0 59869 23400.00000 0 -14581350.665 12547919.900 16770083.090 10 0 59869 24300.00000 0 -13654933.801 10562355.775 18800124.488 10 0 59869 25200.00000 0 -12801372.754 8300210.571 20465699.544 10 0 59869 26100.00000 0 -12066937.193 5808344.609 21734673.083 10 0 59869 27000.00000 0 -11489326.364 3142564.591 22582596.674 10 0 59869 27900.00000 0 -11096063.057 365551.594 22993166.933 10 0 59869 28800.00000 0 -10903332.571 -2455492.251 22958528.485 10 0 59869 29700.00000 0 -10915313.959 -5251382.190 22479416.916 10 0 59869 30600.00000 0 -11124030.517 -7953570.921 21565139.763 10 0 59869 31500.00000 0 -11509725.122 -10496743.517 20233396.238 10 0 59869 32400.00000 0 -12041744.519 -12821281.757 18509939.059 10 0 59869 33300.00000 0 -12679895.795 -14875497.543 16428084.299 10 0 59869 34200.00000 0 -13376218.835 -16617544.334 14028077.808 10 0 59869 35100.00000 0 -14077101.326 -18016928.521 11356329.217 10 0 59869 36000.00000 0 -14725648.520 -19055558.775 8464526.970 10 0 59869 36900.00000 0 -15264209.068 -19728290.063 5408650.235 10 0 59869 37800.00000 0 -15636951.355 -20042939.784 2247895.571 10 0 59869 38700.00000 0 -15792382.133 -20019775.145 -956461.807 10 0 59869 39600.00000 0 -15685701.140 -19690492.845 -4142250.714 10 0 59869 40500.00000 0 -15280891.741 -19096733.428 -7247608.029 10 0 59869 41400.00000 0 -14552458.178 -18288192.300 -10212180.757 10 0 59869 42300.00000 0 -13486734.571 -17320406.518 -12978302.413 10 0 59869 43200.00000 0 -12082708.425 -16252310.428 -15492120.432 10 0 59869 44100.00000 0 -10352321.708 -15143663.161 -17704652.059 10 0 59869 45000.00000 0 -8320234.517 -14052456.755 -19572747.380 10 0 59869 45900.00000 0 -6023058.933 -13032414.622 -21059940.062 10 0 59869 46800.00000 0 -3508093.076 -12130686.468 -22137168.479 10 0 59869 47700.00000 0 -831606.607 -11385837.592 -22783352.436 10 0 59869 48600.00000 0 1943252.026 -10826218.072 -22985813.636 10 0 59869 49500.00000 0 4748840.268 -10468781.294 -22740531.060 10 0 59869 50400.00000 0 7515599.009 -10318402.192 -22052225.726 10 0 59869 51300.00000 0 10174715.755 -10367724.367 -20934272.718 10 0 59869 52200.00000 0 12660762.365 -10597542.606 -19408441.815 10 0 59869 53100.00000 0 14914196.973 -10977704.539 -17504471.581 10 0 59869 54000.00000 0 16883625.557 -11468492.842 -15259485.197 10 0 59869 54900.00000 0 18527728.572 -12022428.841 -12717259.601 10 0 59869 55800.00000 0 19816772.210 -12586420.195 -9927362.713 10 0 59869 56700.00000 0 20733641.588 -13104160.609 -6944176.276 10 0 59869 57600.00000 0 21274353.530 -13518678.682 -3825824.282 10 0 59869 58500.00000 0 21448028.776 -13774926.720 -633029.098 10 0 59869 59400.00000 0 21276326.611 -13822298.753 2572081.274 10 0 59869 60300.00000 0 20792367.686 -13616970.296 5727190.420 10 0 59869 61200.00000 0 20039192.530 -13123960.262 8771010.432 10 0 59869 62100.00000 0 19067822.689 -12318827.645 11644474.190 10 0 59869 63000.00000 0 17935007.885 -11188931.366 14291879.526 10 0 59869 63900.00000 0 16700755.364 -9734200.500 16661963.066 10 0 59869 64800.00000 0 15425746.120 -7967382.840 18708883.559 10 0 59869 65700.00000 0 14168746.704 -5913761.687 20393096.616 10 0 59869 66600.00000 0 12984124.861 -3610352.985 21682105.184 10 0 59869 67500.00000 0 11919572.169 -1104616.178 22551072.812 10 0 59869 68400.00000 0 11014127.688 1547267.932 22983289.394 10 0 59869 69300.00000 0 10296583.768 4282481.500 22970481.846 10 0 59869 70200.00000 0 9784339.032 7033930.857 22512964.934 10 0 59869 71100.00000 0 9482745.004 9732788.280 21619630.159 10 0 59869 72000.00000 0 9384972.548 12311110.685 20307773.269 10 0 59869 72900.00000 0 9472402.891 14704428.645 18602763.653 10 0 59869 73800.00000 0 9715526.597 16854200.250 16537561.405 10 0 59869 74700.00000 0 10075312.927 18710029.564 14152090.477 10 0 59869 75600.00000 0 10504992.676 20231558.920 11492478.844 10 0 59869 76500.00000 0 10952180.321 21389957.255 8610178.975 10 0 59869 77400.00000 0 11361247.050 22168942.948 5560984.373 10 0 59869 78300.00000 0 11675845.481 22565298.606 2403959.989 10 0 59869 79200.00000 0 11841480.095 22588856.013 -799693.794 10 0 59869 80100.00000 0 11808015.004 22261951.346 -3987822.156 10 0 59869 81000.00000 0 11532012.816 21618372.871 -7098519.316 10 0 59869 81900.00000 0 10978804.894 20701844.601 -10071331.197 10 0 59869 82800.00000 0 10124204.227 19564109.036 -12848433.565 10 0 59869 83700.00000 0 8955786.776 18262689.182 -15375762.340 10 0 59869 84600.00000 0 7473685.074 16858423.740 -17604073.494 10 0 59869 85500.00000 0 5690858.340 15412879.238 -19489911.101 10 0 59870 0.00000 0 3632825.492 13985748.333 -20996463.898 10 0 59870 900.00000 0 1336868.782 12632343.424 -22094293.647 10 0 59870 1800.00000 0 -1149257.759 11401293.476 -22761918.439 10 0 59870 2700.00000 0 -3769066.436 10332538.969 -22986241.625 10 0 59870 3600.00000 0 -6459446.529 9455711.791 -22762815.270 10 0 59870 4500.00000 0 -9153061.129 8788967.873 -22095933.337 10 0 59870 5400.00000 0 -11780930.449 8338322.069 -20998552.152 10 0 59870 6300.00000 0 -14275093.870 8097513.222 -19492039.341 10 0 59870 7200.00000 0 -16571239.378 8048404.772 -17605755.909 10 0 59870 8100.00000 0 -18611190.280 8161903.360 -15376479.598 10 0 59870 9000.00000 0 -20345145.043 8399355.667 -12847680.916 10 0 59870 9900.00000 0 -21733576.296 8714363.249 -10068666.459 10 0 59870 10800.00000 0 -22748709.699 9054937.175 -7093606.920 10 0 59870 11700.00000 0 -23375521.168 9365899.749 -3980469.651 10 0 59870 12600.00000 0 -23612211.520 9591430.090 -789877.755 10 0 59870 13500.00000 0 -23470139.987 9677644.333 2416080.839 10 0 59870 14400.00000 0 -22973221.065 9575099.986 5575070.026 10 0 59870 15300.00000 0 -22156811.977 9241117.569 8625723.084 10 0 59870 16200.00000 0 -21066139.513 8641820.776 11508836.759 10 0 59870 17100.00000 0 -19754334.178 7753808.779 14168518.360 10 0 59870 18000.00000 0 -18280155.805 6565390.231 16553263.557 10 0 59870 18900.00000 0 -16705507.139 5077327.294 18616944.598 10 0 59870 19800.00000 0 -15092840.129 3303058.692 20319690.756 10 0 59870 20700.00000 0 -13502563.453 1268392.760 21628645.201 10 0 59870 21600.00000 0 -11990559.034 -989316.724 22518585.226 10 0 59870 22500.00000 0 -10605910.050 -3422477.849 22972395.398 10 0 59870 23400.00000 0 -9388933.820 -5974997.192 22981385.928 10 0 59870 24300.00000 0 -8369599.823 -8584374.679 22545451.359 10 0 59870 25200.00000 0 -7566397.120 -11184071.121 21673067.343 10 0 59870 26100.00000 0 -6985696.864 -13706051.802 20381125.949 10 0 59870 27000.00000 0 -6621635.256 -16083402.459 18694612.630 10 0 59870 27900.00000 0 -6456520.957 -18252910.959 16646130.507 10 0 59870 28800.00000 0 -6461749.555 -20157509.037 14275280.294 10 0 59870 29700.00000 0 -6599186.767 -21748474.084 11627906.628 10 0 59870 30600.00000 0 -6822962.677 -22987300.314 8755224.035 10 0 59870 31500.00000 0 -7081602.179 -23847161.837 5712838.149 10 0 59870 32400.00000 0 -7320402.520 -24313906.732 2559679.886 10 0 59870 33300.00000 0 -7483958.199 -24386540.212 -643127.791 10 0 59870 34200.00000 0 -7518726.918 -24077176.042 -3833449.179 10 0 59870 35100.00000 0 -7375528.013 -23410457.404 -6949338.736 10 0 59870 36000.00000 0 -7011867.185 -22422470.571 -9930244.310 10 0 59870 36900.00000 0 -6393988.180 -21159196.130 -12718186.997 10 0 59870 37800.00000 0 -5498563.197 -19674562.044 -15258894.293 10 0 59870 38700.00000 0 -4313948.676 -18028179.803 -17502863.892 10 0 59870 39600.00000 0 -2840951.312 -16282858.501 -19406336.664 10 0 59870 40500.00000 0 -1093069.648 -14502001.230 -20932159.153 10 0 59870 41400.00000 0 903801.350 -12746993.270 -22050518.079 10 0 59870 42300.00000 0 3112192.483 -11074692.146 -22739531.765 10 0 59870 43200.00000 0 5484376.828 -9535125.297 -22985686.343 10 0 59870 44100.00000 0 7964127.025 -8169492.407 -22784107.595 10 0 59870 45000.00000 0 10488840.930 -7008556.649 -22138662.574 10 0 59870 45900.00000 0 12991947.502 -6071492.476 -21061888.547 10 0 59870 46800.00000 0 15405492.659 -5365238.291 -19574750.259 10 0 59870 47700.00000 0 17662796.894 -4884380.801 -17706230.019 10 0 59870 48600.00000 0 19701073.243 -4611575.145 -15492758.589 10 0 59870 49500.00000 0 21463895.680 -4518481.984 -12977498.085 10 0 59870 50400.00000 0 22903414.130 -4567180.630 -10209491.408 10 0 59870 51300.00000 0 23982223.109 -4711996.881 -7242695.442 10 0 59870 52200.00000 0 24674805.735 -4901666.480 -4134917.788 10 0 59870 53100.00000 0 24968492.896 -5081740.876 -946678.954 10 0 59870 54000.00000 0 24863898.259 -5197131.685 2259976.675 10 0 59870 54900.00000 0 24374812.057 -5194684.628 5422696.771 10 0 59870 55800.00000 0 23527559.732 -5025672.785 8480039.130 10 0 59870 56700.00000 0 22359854.106 -4648102.828 11372667.468 10 0 59870 57600.00000 0 20919191.020 -4028736.328 14044501.347 10 0 59870 58500.00000 0 19260857.328 -3144740.701 16443797.895 10 0 59870 59400.00000 0 17445635.952 -1984900.412 18524144.883 10 0 59870 60300.00000 0 15537304.746 -550337.741 20245346.879 10 0 59870 61200.00000 0 13600033.941 1145286.769 21574188.538 10 0 59870 62100.00000 0 11695790.358 3076102.458 22485061.797 10 0 59870 63000.00000 0 9881855.616 5204871.716 22960446.438 10 0 59870 63900.00000 0 8208560.356 7484313.379 22991236.154 10 0 59870 64800.00000 0 6717327.015 9858852.156 22576905.099 10 0 59870 65700.00000 0 5439100.761 12266722.550 21725512.560 10 0 59870 66600.00000 0 4393232.111 14642341.304 20453546.073 10 0 59870 67500.00000 0 3586856.138 16918851.584 18785605.983 10 0 59870 68400.00000 0 3014792.875 19030734.978 16753936.980 10 0 59870 69300.00000 0 2659972.238 20916384.340 14397814.814 10 0 59870 70200.00000 0 2494365.223 22520531.920 11762798.837 10 0 59870 71100.00000 0 2480382.322 23796432.713 8899863.472 10 0 59870 72000.00000 0 2572680.691 24707712.528 5864424.130 10 0 59870 72900.00000 0 2720304.482 25229803.782 2715275.184 10 0 59870 73800.00000 0 2869068.567 25350908.658 -486540.463 10 0 59870 74700.00000 0 2964085.408 25072448.568 -3678908.932 10 0 59870 75600.00000 0 2952328.340 24408980.121 -6799847.624 10 0 59870 76500.00000 0 2785122.584 23387579.947 -9788708.951 10 0 59870 77400.00000 0 2420457.867 22046723.030 -12587361.851 10 0 59870 78300.00000 0 1825023.677 20434700.529 -15141327.727 10 0 59870 79200.00000 0 975879.450 18607642.566 -17400848.129 10 0 59870 80100.00000 0 -138312.758 16627228.354 -19321862.638 10 0 59870 81000.00000 0 -1516547.344 14558179.314 -20866877.186 10 0 59870 81900.00000 0 -3145259.488 12465640.157 -22005705.191 10 0 59870 82800.00000 0 -4998646.053 10412557.892 -22716066.282 10 0 59870 83700.00000 0 -7039511.641 8457168.771 -22984030.312 10 0 59870 84600.00000 0 -9220606.114 6650698.749 -22804297.384 10 0 59870 85500.00000 0 -11486398.816 5035374.131 -22180307.855 10 0 59871 0.00000 0 -13775215.945 3642825.948 -21124179.816 10 0 59871 900.00000 0 -16021653.333 2492954.147 -19656474.240 10 0 59871 1800.00000 0 -18159160.517 1593300.700 -17805793.679 10 0 59871 2700.00000 0 -20122691.807 938954.677 -15608220.352 10 0 59871 3600.00000 0 -21851309.730 512994.073 -13106606.094 10 0 59871 4500.00000 0 -23290632.331 287443.539 -10349727.955 10 0 59871 5400.00000 0 -24395021.018 224705.990 -7391326.670 10 0 59871 6300.00000 0 -25129416.837 279405.678 -4289047.643 10 0 59871 7200.00000 0 -25470748.022 400562.837 -1103306.240 10 0 59871 8100.00000 0 -25408850.126 534005.870 2103899.304 10 0 59871 9000.00000 0 -24946860.875 624917.213 5270203.095 10 0 59871 9900.00000 0 -24101074.280 620403.630 8334090.141 10 0 59871 10800.00000 0 -22900261.607 471981.046 11236093.815 10 0 59871 11700.00000 0 -21384489.182 137868.162 13919948.590 10 0 59871 12600.00000 0 -19603484.103 -415008.281 16333675.592 10 0 59871 13500.00000 0 -17614617.530 -1209381.106 18430580.474 10 0 59871 14400.00000 0 -15480590.688 -2256451.603 20170145.195 10 0 59871 15300.00000 0 -13266920.592 -3555189.373 21518797.652 10 0 59871 16200.00000 0 -11039330.055 -5092152.123 22450545.813 10 0 59871 17100.00000 0 -8861149.859 -6841832.878 22947465.653 10 0 59871 18000.00000 0 -6790839.874 -8767520.192 23000034.923 10 0 59871 18900.00000 0 -4879730.480 -10822636.087 22607307.577 10 0 59871 19800.00000 0 -3170076.195 -12952496.911 21776926.368 10 0 59871 20700.00000 0 -1693500.496 -15096425.090 20524973.792 10 0 59871 21600.00000 0 -469894.629 -17190125.439 18875664.264 10 0 59871 22500.00000 0 493185.377 -19168228.881 16860882.925 10 0 59871 23400.00000 0 1200599.524 -20966899.253 14519579.156 10 0 59871 24300.00000 0 1669179.964 -22526396.101 11897025.344 10 0 59871 25200.00000 0 1926781.414 -23793487.757 9043953.882 10 0 59871 26100.00000 0 2010865.692 -24723614.601 6015587.817 10 0 59871 27000.00000 0 1966679.660 -25282712.385 2870582.652 10 0 59871 27900.00000 0 1845102.957 -25448618.994 -330101.241 10 0 59871 28800.00000 0 1700255.909 -25212005.005 -3524374.399 10 0 59871 29700.00000 0 1586968.508 -24576787.930 -6650219.861 10 0 59871 30600.00000 0 1558217.534 -23560011.423 -9646897.380 10 0 59871 31500.00000 0 1662640.669 -22191193.084 -12456126.548 10 0 59871 32400.00000 0 1942233.637 -20511166.787 -15023225.478 10 0 59871 33300.00000 0 2430329.055 -18570466.830 -17298182.295 10 0 59871 34200.00000 0 3149944.015 -16427320.618 -19236637.829 10 0 59871 35100.00000 0 4112568.111 -14145333.278 -20800759.672 10 0 59871 36000.00000 0 5317445.121 -11790960.666 -21959989.848 10 0 59871 36900.00000 0 6751380.697 -9430876.418 -22691650.773 10 0 59871 37800.00000 0 8389086.206 -7129343.208 -22981397.041 10 0 59871 38700.00000 0 10194046.077 -4945698.290 -22823503.630 10 0 59871 39600.00000 0 12119873.684 -2932058.733 -22220984.304 10 0 59871 40500.00000 0 14112099.947 -1131342.427 -21185537.435 10 0 59871 41400.00000 0 16110320.283 424312.413 -19737319.906 10 0 59871 42300.00000 0 18050610.007 1714663.283 -17904553.266 10 0 59871 43200.00000 0 19868106.686 2731968.907 -15722969.738 10 0 59871 44100.00000 0 21499650.635 3481059.839 -13235109.042 10 0 59871 45000.00000 0 22886371.975 3978872.564 -10489480.170 10 0 59871 45900.00000 0 23976114.919 4253468.493 -7539605.158 10 0 59871 46800.00000 0 24725596.827 4342581.244 -4442964.346 10 0 59871 47700.00000 0 25102210.853 4291755.668 -1259864.873 10 0 59871 48600.00000 0 25085396.402 4152159.460 1947744.377 10 0 59871 49500.00000 0 24667520.079 3978161.966 5117487.157 10 0 59871 50400.00000 0 23854230.843 3824784.351 8187778.801 10 0 59871 51300.00000 0 22664275.471 3745130.409 11099025.267 10 0 59871 52200.00000 0 21128783.282 3787907.612 13794778.598 10 0 59871 53100.00000 0 19290051.396 3995143.557 16222826.278 10 0 59871 54000.00000 0 17199882.517 4400194.257 18336193.881 10 0 59871 54900.00000 0 14917545.523 5026127.897 20094042.478 10 0 59871 55800.00000 0 12507444.466 5884551.539 21462444.615 10 0 59871 56700.00000 0 10036592.950 6974929.496 22415025.372 10 0 59871 57600.00000 0 7571998.336 8284421.545 22933457.679 10 0 59871 58500.00000 0 5178063.346 9788247.534 23007803.758 10 0 59871 59400.00000 0 2914111.372 11450563.325 22636697.419 10 0 59871 60300.00000 0 832136.243 13225812.129 21827364.548 10 0 59871 61200.00000 0 -1025132.073 15060495.786 20595481.886 10 0 59871 62100.00000 0 -2625767.548 16895293.472 18964876.828 10 0 59871 63000.00000 0 -3949731.784 18667441.051 16967073.521 10 0 59871 63900.00000 0 -4989457.613 20313273.359 14640693.231 10 0 59871 64800.00000 0 -5749909.429 21770824.861 12030719.383 10 0 59871 65700.00000 0 -6248118.459 22982381.284 9187640.125 10 0 59871 66600.00000 0 -6512212.645 23896876.353 6166483.757 10 0 59871 67500.00000 0 -6579981.914 24472033.695 3025764.383 10 0 59871 68400.00000 0 -6497038.901 24676164.027 -173642.793 10 0 59871 69300.00000 0 -6314652.294 24489541.567 -3369675.433 10 0 59871 70200.00000 0 -6087344.005 23905300.842 -6500284.940 10 0 59871 71100.00000 0 -5870351.574 22929814.781 -9504641.091 10 0 59871 72000.00000 0 -5717063.312 21582536.582 -12324316.720 10 0 59871 72900.00000 0 -5676535.191 19895310.300 -14904429.078 10 0 59871 73800.00000 0 -5791195.468 17911177.386 -17194715.101 10 0 59871 74700.00000 0 -6094835.286 15682727.824 -19150518.878 10 0 59871 75600.00000 0 -6610971.789 13270063.738 -20733671.426 10 0 59871 76500.00000 0 -7351654.579 10738459.815 -21913244.889 10 0 59871 77400.00000 0 -8316767.731 8155817.925 -22666165.702 10 0 59871 78300.00000 0 -9493858.639 5590022.019 -22977674.127 10 0 59871 79200.00000 0 -10858502.589 3106303.764 -22841620.588 10 0 59871 80100.00000 0 -12375189.167 764729.082 -22260592.420 10 0 59871 81000.00000 0 -13998694.336 -1382089.344 -21245868.117 10 0 59871 81900.00000 0 -15675881.258 -3290958.043 -19817199.546 10 0 59871 82800.00000 0 -17347854.416 -4929665.118 -18002426.139 10 0 59871 83700.00000 0 -18952376.426 -6278074.125 -15836928.519 10 0 59871 84600.00000 0 -20426445.476 -7328704.509 -13362932.330 10 0 59871 85500.00000 0 -21708924.260 -8086775.407 -10628676.278 10 0 59872 0.00000 0 -22743108.928 -8569712.604 -7687461.530 10 0 59872 900.00000 0 -23479129.588 -8806141.590 -4596600.256 10 0 59872 1800.00000 0 -23876079.312 -8834410.682 -1416288.956 10 0 59872 2700.00000 0 -23903783.444 -8700709.754 1791575.580 10 0 59872 3600.00000 0 -23544133.221 -8456865.523 4964609.539 10 0 59872 4500.00000 0 -22791928.466 -8157908.914 8041161.385 10 0 59872 5400.00000 0 -21655194.484 -7859518.954 10961512.447 10 0 59872 6300.00000 0 -20154960.691 -7615452.455 13669035.047 10 0 59872 7200.00000 0 -18324511.288 -7475068.749 16111285.599 10 0 59872 8100.00000 0 -16208140.344 -7481054.139 18241011.940 10 0 59872 9000.00000 0 -13859464.040 -7667441.751 20017056.292 10 0 59872 9900.00000 0 -11339361.026 -8058009.546 21405137.516 10 0 59872 10800.00000 0 -8713626.605 -8665123.100 22378499.070 10 0 59872 11700.00000 0 -6050437.792 -9489070.966 22918411.664 10 0 59872 12600.00000 0 -3417733.545 -10517919.900 23014522.412 10 0 59872 13500.00000 0 -880617.360 -11727895.728 22665044.995 10 0 59872 14400.00000 0 1501111.887 -13084274.088 21876788.101 10 0 59872 15300.00000 0 3675200.419 -14542744.334 20665022.062 10 0 59872 16200.00000 0 5598860.506 -16051190.602 19053186.302 10 0 59872 17100.00000 0 7240294.064 -17551816.915 17072442.753 10 0 59872 18000.00000 0 8579757.171 -18983528.907 14761083.062 10 0 59872 18900.00000 0 9610122.508 -20284474.079 12163799.898 10 0 59872 19800.00000 0 10336917.207 -21394635.554 9330835.104 10 0 59872 20700.00000 0 10777834.932 -22258371.673 6317019.905 10 0 59872 21600.00000 0 10961742.872 -22826795.506 3180724.468 10 0 59872 22500.00000 0 10927225.177 -23059894.487 -17263.885 10 0 59872 23400.00000 0 10720723.856 -22928300.607 -3214912.758 10 0 59872 24300.00000 0 10394355.178 -22414635.826 -6350144.794 10 0 59872 25200.00000 0 10003493.533 -21514374.703 -9362042.658 10 0 59872 26100.00000 0 9604224.786 -20236186.228 -12192035.243 10 0 59872 27000.00000 0 9250777.046 -18601738.614 -14785041.653 10 0 59872 27900.00000 0 8993038.064 -16644973.257 -17090550.175 10 0 59872 28800.00000 0 8874265.089 -14410876.536 -19063610.466 10 0 59872 29700.00000 0 8929085.155 -11953799.302 -20665718.969 10 0 59872 30600.00000 0 9181871.681 -9335393.085 -21865579.565 10 0 59872 31500.00000 0 9645567.396 -6622248.429 -22639723.883 10 0 59872 32400.00000 0 10321004.820 -3883333.374 -22972978.569 10 0 59872 33300.00000 0 11196754.440 -1187338.704 -22858769.729 10 0 59872 34200.00000 0 12249508.239 1399959.276 -22299258.061 10 0 59872 35100.00000 0 13444983.474 3818208.368 -21305301.552 10 0 59872 36000.00000 0 14739309.344 6014757.761 -19896246.045 10 0 59872 36900.00000 0 16080838.442 7946607.797 -18099547.505 10 0 59872 37800.00000 0 17412306.647 9581951.075 -15950233.288 10 0 59872 38700.00000 0 18673250.038 10901240.983 -13490212.978 10 0 59872 39600.00000 0 19802576.255 11897743.777 -10767452.724 10 0 59872 40500.00000 0 20741181.021 12577552.461 -7835029.740 10 0 59872 41400.00000 0 21434498.554 12959063.650 -4750086.323 10 0 59872 42300.00000 0 21834877.391 13071941.446 -1572704.892 10 0 59872 43200.00000 0 21903680.767 12955614.297 1635272.854 10 0 59872 44100.00000 0 21613022.570 12657370.559 4811458.516 10 0 59872 45000.00000 0 20947065.663 12230135.316 7894136.555 10 0 59872 45900.00000 0 19902828.161 11730024.280 10823466.346 10 0 59872 46800.00000 0 18490464.304 11213779.521 13542642.934 10 0 59872 47700.00000 0 16733008.842 10736196.261 15998993.816 10 0 59872 48600.00000 0 14665596.417 10347649.668 18144990.973 10 0 59872 49500.00000 0 12334189.196 10091825.758 19939159.366 10 0 59872 50400.00000 0 9793866.327 10003751.366 21346865.488 10 0 59872 51300.00000 0 7106746.480 10108205.109 22340972.183 10 0 59872 52200.00000 0 4339629.428 10418575.067 22902348.667 10 0 59872 53100.00000 0 1561453.761 10936210.130 23020227.320 10 0 59872 54000.00000 0 -1159325.190 11650291.403 22692401.724 10 0 59872 54900.00000 0 -3757330.274 12538228.716 21925263.003 10 0 59872 55800.00000 0 -6172724.645 13566565.612 20733674.313 10 0 59872 56700.00000 0 -8353441.089 14692355.455 19140685.945 10 0 59872 57600.00000 0 -10257088.091 15864951.974 17177096.075 10 0 59872 58500.00000 0 -11852455.157 17028140.425 14880864.872 10 0 59872 59400.00000 0 -13120556.255 18122521.411 12296392.145 10 0 59872 60300.00000 0 -14055168.967 19088048.751 9473671.136 10 0 59872 61200.00000 0 -14662847.384 19866615.935 6467333.577 10 0 59872 62100.00000 0 -14962408.517 20404583.291 3335603.200 10 0 59872 63000.00000 0 -14983913.706 20655139.886 139176.903 10 0 59872 63900.00000 0 -14767187.505 20580400.520 -3059945.435 10 0 59872 64800.00000 0 -14359936.067 20153148.777 -6199660.269 10 0 59872 65700.00000 0 -13815543.995 19358151.411 -9218965.702 10 0 59872 66600.00000 0 -13190642.406 18192987.083 -12059149.158 10 0 59872 67500.00000 0 -12542550.951 16668352.571 -14664933.942 10 0 59872 68400.00000 0 -11926702.099 14807831.438 -16985561.863 10 0 59872 69300.00000 0 -11394157.077 12647132.776 -18975790.101 10 0 59872 70200.00000 0 -10989319.217 10232829.993 -20596782.214 10 0 59872 71100.00000 0 -10747942.286 7620650.685 -21816875.231 10 0 59872 72000.00000 0 -10695519.061 4873387.839 -22612207.099 10 0 59872 72900.00000 0 -10846119.344 2058518.636 -22967191.625 10 0 59872 73800.00000 0 -11201727.613 -754370.452 -22874831.035 10 0 59872 74700.00000 0 -11752109.304 -3496245.028 -22336859.441 10 0 59872 75600.00000 0 -12475212.173 -6101259.757 -21363713.964 10 0 59872 76500.00000 0 -13338086.406 -8509260.944 -19974333.648 10 0 59872 77400.00000 0 -14298284.859 -10668050.112 -18195789.808 10 0 59872 78300.00000 0 -15305684.292 -12535314.198 -16062754.966 10 0 59872 79200.00000 0 -16304650.256 -14080141.948 -13616820.777 10 0 59872 80100.00000 0 -17236453.518 -15284063.633 -10905678.697 10 0 59872 81000.00000 0 -18041835.013 -16141571.547 -7982179.949 10 0 59872 81900.00000 0 -18663609.917 -16660100.907 -4903293.986 10 0 59872 82800.00000 0 -19049199.763 -16859473.702 -1728986.878 10 0 59872 83700.00000 0 -19152984.717 -16770831.036 1478957.361 10 0 59872 84600.00000 0 -18938375.984 -16435101.206 4658148.384 10 0 59872 85500.00000 0 -18379520.492 -15901070.321 7746809.325 99